Flag for Canada Weather past 2 weeks in Greater Sudbury, Ontario, Canada

Now
66 °F

Low clouds.


Feels Like: 66 °F
Forecast: 55 / 70 °F
Wind: 10 mph from West

Location: Sudbury

Current Time: Jul 23, 2014 at 4:10:17 AM

Latest Report: Jul 23, 2014 at 1:00 AM


Visibility: 15 mi

Pressure: 29.80 "Hg

Humidity: 88%

Dew point: 63 °F

Location of Greater SudburyLocation

Historic Weather in Greater Sudbury — Graph

°F

Greater Sudbury temperature yesterday

Maximum temperature yesterday: 81 °F (at 12:00 PM)
Minimum temperature yesterday: 61 °F (at 6:00 AM)
Average temperature yesterday: 68 °F

Past Weeks' High & Low Weather Summary

 TemperatureHumidityPressure
High81 °F (Jul 22, 12:00 PM)100% (Jul 8, 5:00 AM)30.24 "Hg (Jul 8, 5:00 AM)
Low46 °F (Jul 10, 4:00 AM)41% (Jul 10, 5:00 PM)29.46 "Hg (Jul 8, 6:00 PM)
Average62 °F78%29.95 "Hg
* Reported Jul 8 1:00 AM — Jul 23 1:00 AM, Greater Sudbury, Weather by CustomWeather, © 2014

Note: Actual official high and low records may vary slightly from our data, if they occured in-between our weather recording intervals... More about our weather records

Advertising

Greater Sudbury weather history for previous 24 hours

 ConditionsComfort  
Time TempWeatherWind HumidityBarometerVisibility
1:00 AM
Jul 23
66 °FLow clouds.10 mph88%29.80 "Hg15 mi
12:00 AM66 °FMostly cloudy.10 mph100%29.80 "Hg8 mi
11:00 PM
Jul 22
66 °FPassing clouds.8 mph100%29.80 "Hg8 mi
10:00 PM68 °FOvercast.12 mph94%29.80 "Hg10 mi
9:00 PM70 °FSprinkles. Overcast.17 mph88%29.80 "Hg10 mi
8:53 PM70 °FSprinkles. Overcast.20 mph88%29.80 "Hg10 mi
8:00 PM70 °FOvercast.16 mph88%29.80 "Hg12 mi
12:00 PM81 °FBroken clouds.15 mph66%29.96 "Hg6 mi
11:00 AM79 °FBroken clouds.13 mph70%29.99 "Hg6 mi
10:00 AM75 °FBroken clouds.10 mph74%30.02 "Hg6 mi
9:00 AM70 °FBroken clouds.6 mph83%30.05 "Hg6 mi
8:00 AM68 °FHaze.6 mph88%30.04 "Hg6 mi
7:00 AM63 °FHaze.3 mph94%30.04 "Hg6 mi
6:00 AM61 °FFog.8 mph100%30.05 "Hg5 mi
5:00 AM63 °FFog.5 mph94%30.05 "Hg6 mi
4:00 AM63 °FFog.5 mph94%30.04 "Hg6 mi
Weather by CustomWeather, © 2014

See weather overviewHow to use our weather pages